Weather in Slavnoye

Russia / Sakhalin District     45°21′53″N   148°44′43″E
temp.,
°C
wind,
m/s
gust,
m/s
humid.,
%
clouds,
%
prec.,
mm/h
press.,
hPa
HPBL,
m
12 may, wed
wed1223:00+2n3598100 0.1 1015191
02:00+2nnw3495100 0.0 101697
05:00+2nnw448874 0.1 101875
08:00+2nnw33835 0.0 102036
11:00+3nw22775 0.0 102117
14:00+4nw2374100 0.0 102265
17:00+4wnw12764 0.0 102247
20:00+3nw127716 0.0 102419
13 may, thu
thu1323:00+2wnw11780 0.0 102410
02:00+3sw2277100 0.0 102413
05:00+3sw3383100 0.0 102430
08:00+2sw4585100 0.0 102456
11:00+2ssw5793100 0.0 1023112
14:00+2ssw5996100 0.0 1022172
17:00+2ssw4795100 0.1 1021115
20:00+3sse4798100 2.9 1020105
14 may, fri
fri1423:00+3sse4699100 5.6 101984
02:00+3s3499100 0.4 101838
05:00+2n01100100 0.5 101710
08:00+3ne229989 0.0 101712
11:00+2se2210091 0.0 101732
14:00+3sse339880 0.0 101650
17:00+3s2298100 0.1 101643
20:00+4s2297100 0.1 101616
15 may, sat
sat1523:00+4se119799 0.1 101610
02:00+4ene119998 0.1 101610
05:00+4e22100100 0.1 101510
08:00+3ene22100100 0.1 101611
11:00+3ese22100100 0.1 101711
14:00+3sse22100100 0.1 101614
17:00+3sw3499100 0.1 101638
20:00+4sw34100100 0.1 101540
16 may, sun
sun1623:00+3s35100100 0.1 101465
02:00+3s22100100 0.9 101314
05:00+3s49100100 3.4 1010105
08:00+4ssw815100100 3.0 1007215
11:00+3sw59100100 12.2 1005128
14:00+3sw45100100 1.1 100455
17:00+5nw11100100 5.1 100310
20:00+5w2299100 0.3 100410